M I D A S
Marine Information and Data Acquisition System
Tripno 2319 of the Zeeleeuw from 2012-05-29 07:03:19 to 2012-05-29 15:46:05
Back to CruiseResearch ActivitiesStationsMapUnderway DataData graphs

EquipmentUnitsComments
TimeDGPSUTC
LatitudeDGPSDM.mWGS84
LongitudeDGPSDM.mWGS84
SpeedMeteo Stationm/sRelative wind speed
DirectionMeteo StationdegRelative wind direction
TemperatureMeteo Stationdeg CelciusAir temperature
PressureMeteo StationPaAtmospheric pressure
HumidityMeteo Station%Relative humidity
Missing or incorrect values are displayed as -999
Metereological data collected by the RV Zeeleeuw from 2012-05-29 02:21:52 to 2012-05-29 15:51:47
                                                                                    Next 1000 lines
Time Latitude Longitude Speed Direction Temperature Pressure Humidity
2012-05-29 02:22:01 51°13.637 2°56.015 -999 35 13.6 101600 39
2012-05-29 02:22:07 51°13.637 2°56.014 -999 35 13.6 101600 38
2012-05-29 02:22:11 51°13.637 2°56.014 -999 32 13.6 101600 38
2012-05-29 02:22:17 51°13.637 2°56.015 -999 33 13.6 101600 39
2012-05-29 02:22:21 51°13.637 2°56.015 -999 28 13.6 101600 39
2012-05-29 02:22:27 51°13.637 2°56.015 -999 23 13.6 101600 39
2012-05-29 02:22:31 51°13.638 2°56.015 -999 23 13.6 101600 39
2012-05-29 02:22:37 51°13.638 2°56.015 -999 19 13.6 101600 39
2012-05-29 02:22:41 51°13.638 2°56.015 -999 24 13.6 101600 39
2012-05-29 02:22:46 51°13.638 2°56.015 -999 24 13.6 101600 39
2012-05-29 02:22:51 51°13.638 2°56.015 -999 20 13.6 101600 39
2012-05-29 02:22:56 51°13.638 2°56.015 -999 12 13.6 101600 39
2012-05-29 02:23:02 51°13.638 2°56.015 -999 15 13.6 101600 39
2012-05-29 02:23:06 51°13.638 2°56.015 -999 16 13.6 101600 39
2012-05-29 02:23:11 51°13.638 2°56.014 -999 11 13.6 101600 39
2012-05-29 02:23:16 51°13.638 2°56.013 -999 7 13.6 101600 39
2012-05-29 02:23:22 51°13.638 2°56.013 -999 7 13.6 101600 39
2012-05-29 02:23:26 51°13.638 2°56.012 -999 15 13.6 101600 39
2012-05-29 02:23:32 51°13.638 2°56.012 -999 14 13.6 101600 39
2012-05-29 02:23:36 51°13.639 2°56.012 -999 19 13.6 101600 39
2012-05-29 02:23:41 51°13.639 2°56.011 -999 21 13.6 101600 39
2012-05-29 02:23:46 51°13.639 2°56.011 -999 21 13.6 101600 40
2012-05-29 02:23:52 51°13.639 2°56.01 -999 17 13.6 101600 40
2012-05-29 02:23:57 51°13.639 2°56.01 -999 16 13.6 101600 40
2012-05-29 02:24:01 51°13.639 2°56.01 -999 16 13.6 101600 40
2012-05-29 02:24:07 51°13.639 2°56.01 -999 17 13.6 101600 40
2012-05-29 02:24:11 51°13.639 2°56.01 -999 24 13.6 101600 40
2012-05-29 02:24:17 51°13.639 2°56.01 -999 27 13.6 101600 40
2012-05-29 02:24:21 51°13.639 2°56.009 -999 26 13.6 101600 40
2012-05-29 02:24:27 51°13.639 2°56.009 -999 23 13.6 101600 40
2012-05-29 02:24:31 51°13.639 2°56.009 -999 28 13.6 101600 40
2012-05-29 02:24:37 51°13.639 2°56.009 -999 30 13.6 101600 40
2012-05-29 02:24:41 51°13.639 2°56.008 -999 30 13.6 101600 40
2012-05-29 02:24:47 51°13.639 2°56.008 -999 26 13.6 101600 38
2012-05-29 02:24:51 51°13.639 2°56.008 -999 31 13.6 101600 38
2012-05-29 02:24:56 51°13.639 2°56.008 -999 31 13.6 101600 40
2012-05-29 02:25:02 51°13.639 2°56.008 -999 37 13.6 101600 40
2012-05-29 02:25:06 51°13.639 2°56.008 -999 34 13.6 101600 40
2012-05-29 02:25:11 51°13.639 2°56.008 -999 31 13.6 101600 40
2012-05-29 02:25:16 51°13.639 2°56.009 -999 32 13.6 101600 40
2012-05-29 02:25:22 51°13.639 2°56.009 -999 29 13.6 101600 40
2012-05-29 02:25:26 51°13.639 2°56.009 -999 12 13.6 101600 40
2012-05-29 02:25:31 51°13.639 2°56.01 -999 26 13.6 101600 40
2012-05-29 02:25:36 51°13.639 2°56.01 -999 28 13.6 101600 40
2012-05-29 02:25:42 51°13.639 2°56.01 -999 26 13.6 101600 40
2012-05-29 02:25:46 51°13.639 2°56.01 -999 9 13.6 101600 40
2012-05-29 02:25:52 51°13.639 2°56.01 -999 9 13.6 101600 40
2012-05-29 02:25:57 51°13.639 2°56.01 -999 20 13.6 101600 39
2012-05-29 02:26:01 51°13.639 2°56.01 -999 24 13.6 101600 39
2012-05-29 02:26:07 51°13.639 2°56.01 -999 29 13.6 101600 40
2012-05-29 02:26:11 51°13.639 2°56.01 -999 27 13.6 101600 40
2012-05-29 02:26:16 51°13.639 2°56.01 -999 24 13.6 101600 40
2012-05-29 02:26:21 51°13.639 2°56.01 -999 15 13.6 101600 40
2012-05-29 02:26:27 51°13.639 2°56.01 -999 18 13.6 101600 40
2012-05-29 02:26:31 51°13.639 2°56.01 -999 19 13.6 101600 40
2012-05-29 02:26:37 51°13.639 2°56.01 -999 16 13.6 101600 40
2012-05-29 02:26:41 51°13.639 2°56.01 -999 15 13.6 101600 40
2012-05-29 02:26:46 51°13.639 2°56.01 -999 15 13.6 101600 40
2012-05-29 02:26:51 51°13.639 2°56.01 -999 14 13.6 101600 40
2012-05-29 02:26:56 51°13.639 2°56.01 -999 12 13.6 101600 40
2012-05-29 02:27:02 51°13.639 2°56.01 -999 13 13.6 101600 40
2012-05-29 02:27:06 51°13.639 2°56.01 -999 14 13.6 101600 39
2012-05-29 02:27:11 51°13.639 2°56.01 -999 18 13.6 101600 39
2012-05-29 02:27:16 51°13.639 2°56.01 -999 23 13.6 101600 39
2012-05-29 02:27:22 51°13.639 2°56.009 -999 10 13.6 101600 39
2012-05-29 02:27:26 51°13.639 2°56.009 -999 10 13.6 101600 38
2012-05-29 02:27:32 51°13.639 2°56.009 -999 10 13.6 101600 38
2012-05-29 02:27:36 51°13.639 2°56.008 -999 8 13.6 101600 39
2012-05-29 02:27:42 51°13.639 2°56.008 -999 4 13.6 101600 39
2012-05-29 02:27:46 51°13.639 2°56.008 -999 20 13.6 101600 39
2012-05-29 02:27:52 51°13.64 2°56.008 -999 17 13.6 101600 39
2012-05-29 02:27:57 51°13.64 2°56.008 -999 17 13.6 101600 39
2012-05-29 02:28:01 51°13.64 2°56.008 -999 8 13.6 101600 39
2012-05-29 02:28:07 51°13.64 2°56.008 -999 3 13.6 101600 39
2012-05-29 02:28:11 51°13.64 2°56.009 -999 354 13.6 101600 39
2012-05-29 02:28:16 51°13.639 2°56.009 -999 352 13.5 101600 39
2012-05-29 02:28:21 51°13.64 2°56.009 -999 355 13.5 101600 39
2012-05-29 02:28:26 51°13.64 2°56.01 -999 2 13.6 101600 39
2012-05-29 02:28:31 51°13.64 2°56.01 -999 25 13.6 101600 39
2012-05-29 02:28:37 51°13.64 2°56.01 -999 19 13.5 101600 39
2012-05-29 02:28:41 51°13.64 2°56.01 -999 22 13.5 101600 39
2012-05-29 02:28:46 51°13.64 2°56.01 -999 18 13.5 101600 40
2012-05-29 02:28:51 51°13.64 2°56.01 -999 18 13.5 101600 40
2012-05-29 02:28:56 51°13.64 2°56.01 -999 19 13.6 101600 40
2012-05-29 02:29:01 51°13.639 2°56.01 -999 29 13.6 101600 40
2012-05-29 02:29:06 51°13.64 2°56.009 -999 20 13.6 101600 40
2012-05-29 02:29:11 51°13.64 2°56.009 -999 21 13.6 101600 40
2012-05-29 02:29:16 51°13.64 2°56.009 -999 -999 13.6 101600 40
2012-05-29 02:29:22 51°13.639 2°56.009 -999 16 13.6 101600 40
2012-05-29 02:29:26 51°13.639 2°56.008 -999 23 13.6 101600 40
2012-05-29 02:29:32 51°13.639 2°56.008 -999 20 13.6 101600 40
2012-05-29 02:29:36 51°13.639 2°56.008 -999 26 13.5 101600 40
2012-05-29 02:29:41 51°13.639 2°56.008 -999 26 13.5 101600 40
2012-05-29 02:29:46 51°13.639 2°56.007 -999 25 13.5 101600 39
2012-05-29 02:29:52 51°13.639 2°56.008 -999 21 13.5 101600 39
2012-05-29 02:29:57 51°13.639 2°56.008 -999 22 13.5 101600 40
2012-05-29 02:30:01 51°13.639 2°56.008 -999 12 13.5 101600 40
2012-05-29 02:30:07 51°13.638 2°56.007 -999 16 13.5 101600 38
2012-05-29 02:30:12 51°13.636 2°56.002 -999 13 13.5 101600 38
2012-05-29 02:30:16 51°13.635 2°55.997 -999 27 13.5 101600 40
2012-05-29 02:30:21 51°13.634 2°55.992 -999 22 13.5 101600 40
2012-05-29 02:30:27 51°13.634 2°55.991 -999 31 13.5 101600 39
2012-05-29 02:30:32 51°13.634 2°55.99 -999 33 13.5 101600 39
2012-05-29 02:30:36 51°13.634 2°55.99 -999 27 13.5 101600 40
2012-05-29 02:30:41 51°13.634 2°55.991 -999 28 13.5 101600 40
2012-05-29 02:30:47 51°13.633 2°55.99 -999 23 13.5 101600 40
2012-05-29 02:30:51 51°13.633 2°55.989 -999 21 13.5 101600 40
2012-05-29 02:30:57 51°13.633 2°55.987 -999 18 13.5 101600 39
2012-05-29 02:31:01 51°13.633 2°55.987 -999 23 13.5 101600 39
2012-05-29 02:31:07 51°13.634 2°55.988 -999 360 13.5 101600 39
2012-05-29 02:31:11 51°13.635 2°55.989 -999 360 13.5 101600 39
2012-05-29 02:31:16 51°13.635 2°55.991 -999 2 13.5 101600 39
2012-05-29 02:31:21 51°13.635 2°55.993 -999 14 13.5 101600 39
2012-05-29 02:31:27 51°13.636 2°55.994 -999 18 13.5 101600 39
2012-05-29 02:31:31 51°13.636 2°55.995 -999 19 13.5 101600 39
2012-05-29 02:31:37 51°13.636 2°55.996 -999 27 13.5 101600 39
2012-05-29 02:31:41 51°13.636 2°55.996 -999 21 13.5 101600 39
2012-05-29 02:31:47 51°13.636 2°55.997 -999 17 13.5 101600 39
2012-05-29 02:31:51 51°13.636 2°55.997 -999 14 13.5 101600 39
2012-05-29 02:31:57 51°13.636 2°55.998 -999 353 13.5 101600 39
2012-05-29 02:32:01 51°13.636 2°55.998 -999 359 13.5 101600 39
2012-05-29 02:32:06 51°13.636 2°55.999 -999 1 13.5 101600 39
2012-05-29 02:32:11 51°13.636 2°55.999 -999 3 13.5 101600 39
2012-05-29 02:32:17 51°13.636 2°55.999 -999 359 13.5 101600 40
2012-05-29 02:32:21 51°13.636 2°56 -999 6 13.5 101600 40
2012-05-29 02:32:26 51°13.637 2°56 -999 8 13.5 101600 39
2012-05-29 02:32:31 51°13.637 2°56 -999 16 13.5 101600 39
2012-05-29 02:32:36 51°13.637 2°56 -999 16 13.5 101600 40
2012-05-29 02:32:42 51°13.637 2°56 -999 8 13.5 101600 40
2012-05-29 02:32:46 51°13.637 2°56 -999 8 13.5 101600 38
2012-05-29 02:32:51 51°13.637 2°56 -999 8 13.5 101600 38
2012-05-29 02:32:56 51°13.637 2°56 -999 8 13.5 101600 40
2012-05-29 02:33:02 51°13.637 2°56 -999 16 13.5 101600 40
2012-05-29 02:33:06 51°13.637 2°56 -999 15 13.5 101600 40
2012-05-29 02:33:12 51°13.637 2°56 -999 18 13.5 101600 40
2012-05-29 02:33:16 51°13.637 2°56 -999 14 13.5 101600 39
2012-05-29 02:33:21 51°13.638 2°56 -999 19 13.5 101600 39
2012-05-29 02:33:27 51°13.638 2°56 -999 23 13.5 101600 40
2012-05-29 02:33:32 51°13.638 2°56 -999 33 13.5 101600 40
2012-05-29 02:33:36 51°13.638 2°56 -999 21 13.5 101600 39
2012-05-29 02:33:41 51°13.638 2°56 -999 13 13.5 101600 39
2012-05-29 02:33:47 51°13.638 2°56 -999 13 13.5 101600 39
2012-05-29 02:33:51 51°13.638 2°56 -999 -999 13.5 101600 39
2012-05-29 02:33:56 51°13.638 2°56 -999 13 13.5 101600 39
2012-05-29 02:34:01 51°13.638 2°56 -999 358 13.5 101600 39
2012-05-29 02:34:06 51°13.638 2°56.001 -999 354 13.5 101600 39
2012-05-29 02:34:11 51°13.638 2°56 -999 13 13.5 101600 39
2012-05-29 02:34:16 51°13.638 2°56.001 -999 12 13.5 101600 39
2012-05-29 02:34:22 51°13.638 2°56.001 -999 15 13.5 101600 39
2012-05-29 02:34:26 51°13.638 2°56.001 -999 15 13.5 101600 39
2012-05-29 02:34:31 51°13.638 2°56 -999 11 13.5 101600 39
2012-05-29 02:34:36 51°13.639 2°55.999 -999 11 13.5 101600 39
2012-05-29 02:34:42 51°13.639 2°55.999 -999 7 13.5 101600 39
2012-05-29 02:34:46 51°13.639 2°55.999 -999 6 13.5 101610 39
2012-05-29 02:34:52 51°13.639 2°55.999 -999 6 13.5 101610 39
2012-05-29 02:34:56 51°13.639 2°55.999 -999 6 13.5 101600 39
2012-05-29 02:35:02 51°13.639 2°56 -999 15 13.5 101600 39
2012-05-29 02:35:06 51°13.639 2°56 -999 18 13.4 101600 39
2012-05-29 02:35:12 51°13.639 2°56 -999 17 13.4 101600 39
2012-05-29 02:35:16 51°13.639 2°56 -999 16 13.4 101600 40
2012-05-29 02:35:21 51°13.639 2°56 -999 11 13.4 101600 40
2012-05-29 02:35:27 51°13.639 2°56 -999 9 13.4 101600 38
2012-05-29 02:35:32 51°13.639 2°56 -999 10 13.4 101600 38
2012-05-29 02:35:36 51°13.637 2°56.015 -999 358 13.5 101600 39
2012-05-29 02:35:41 51°13.637 2°56.016 -999 358 13.5 101600 39
2012-05-29 02:35:47 51°13.637 2°56.016 -999 -999 13.5 101600 40
2012-05-29 02:35:51 51°13.637 2°56.016 -999 13 13.5 101600 40
2012-05-29 02:35:57 51°13.637 2°56.016 -999 9 13.4 101600 39
2012-05-29 02:36:01 51°13.637 2°56.016 -999 12 13.4 101600 39
2012-05-29 02:36:06 51°13.638 2°56.017 -999 13 13.4 101600 39
2012-05-29 02:36:11 51°13.638 2°56.017 -999 8 13.4 101600 39
2012-05-29 02:36:16 51°13.638 2°56.017 -999 8 13.4 101600 39
2012-05-29 02:36:21 51°13.638 2°56.017 -999 7 13.4 101600 39
2012-05-29 02:36:26 51°13.638 2°56.017 -999 12 13.4 101600 40
2012-05-29 02:36:31 51°13.638 2°56.017 -999 13 13.4 101600 40
2012-05-29 02:36:36 51°13.638 2°56.016 -999 14 13.4 101600 39
2012-05-29 02:36:41 51°13.638 2°56.016 -999 13 13.4 101600 39
2012-05-29 02:36:46 51°13.638 2°56.016 -999 13 13.4 101600 40
2012-05-29 02:36:52 51°13.638 2°56.016 -999 12 13.4 101600 40
2012-05-29 02:36:56 51°13.638 2°56.016 -999 16 13.4 101600 39
2012-05-29 02:37:02 51°13.638 2°56.016 -999 21 13.4 101600 39
2012-05-29 02:37:06 51°13.638 2°56.016 -999 11 13.4 101600 40
2012-05-29 02:37:12 51°13.638 2°56.016 -999 1 13.4 101600 40
2012-05-29 02:37:17 51°13.638 2°56.016 -999 9 13.4 101600 39
2012-05-29 02:37:21 51°13.638 2°56.016 -999 8 13.4 101600 39
2012-05-29 02:37:26 51°13.638 2°56.016 -999 1 13.4 101600 40
2012-05-29 02:37:32 51°13.638 2°56.017 -999 11 13.4 101600 40
2012-05-29 02:37:36 51°13.638 2°56.017 -999 7 13.4 101600 40
2012-05-29 02:37:41 51°13.638 2°56.017 -999 13 13.4 101600 40
2012-05-29 02:37:47 51°13.639 2°56.017 -999 10 13.4 101600 40
2012-05-29 02:37:52 51°13.639 2°56.017 -999 13 13.4 101600 40
2012-05-29 02:37:57 51°13.639 2°56.016 -999 6 13.4 101600 40
2012-05-29 02:38:02 51°13.639 2°56.016 -999 13 13.4 101600 40
2012-05-29 02:38:06 51°13.639 2°56.016 -999 16 13.4 101600 38
2012-05-29 02:38:11 51°13.639 2°56.016 -999 21 13.4 101600 38
2012-05-29 02:38:16 51°13.639 2°56.016 -999 11 13.4 101600 40
2012-05-29 02:38:21 51°13.639 2°56.016 -999 15 13.4 101600 40
2012-05-29 02:38:26 51°13.638 2°56.017 -999 20 13.4 101600 40
2012-05-29 02:38:31 51°13.638 2°56.017 -999 20 13.4 101600 40
2012-05-29 02:38:37 51°13.638 2°56.017 -999 26 13.4 101600 39
2012-05-29 02:38:42 51°13.639 2°56.017 -999 23 13.4 101600 39
2012-05-29 02:38:47 51°13.639 2°56.017 -999 22 13.4 101600 39
2012-05-29 02:38:52 51°13.638 2°56.017 -999 22 13.4 101600 39
2012-05-29 02:38:57 51°13.638 2°56.017 -999 22 13.4 101600 40
2012-05-29 02:39:02 51°13.638 2°56.017 -999 14 13.4 101600 40
2012-05-29 02:39:07 51°13.638 2°56.017 -999 14 13.4 101600 39
2012-05-29 02:39:12 51°13.639 2°56.017 -999 9 13.4 101600 39
2012-05-29 02:39:17 51°13.639 2°56.017 -999 9 13.4 101600 40
2012-05-29 02:39:22 51°13.638 2°56.017 -999 8 13.4 101600 40
2012-05-29 02:39:27 51°13.638 2°56.017 -999 8 13.4 101600 40
2012-05-29 02:39:32 51°13.638 2°56.017 -999 10 13.4 101600 40
2012-05-29 02:39:37 51°13.638 2°56.017 -999 8 13.4 101600 39
2012-05-29 02:39:42 51°13.638 2°56.017 -999 10 13.4 101600 39
2012-05-29 02:39:47 51°13.638 2°56.017 -999 16 13.4 101600 39
2012-05-29 02:39:52 51°13.638 2°56.017 -999 14 13.4 101600 39
2012-05-29 02:39:57 51°13.638 2°56.017 -999 12 13.4 101600 40
2012-05-29 02:40:02 51°13.638 2°56.017 -999 18 13.4 101600 40
2012-05-29 02:40:06 51°13.637 2°56.017 -999 17 13.4 101600 40
2012-05-29 02:40:11 51°13.637 2°56.017 -999 14 13.4 101600 40
2012-05-29 02:40:16 51°13.637 2°56.017 -999 15 13.4 101600 40
2012-05-29 02:40:21 51°13.637 2°56.017 -999 13 13.4 101600 40
2012-05-29 02:40:26 51°13.637 2°56.017 -999 18 13.4 101600 40
2012-05-29 02:40:31 51°13.637 2°56.017 -999 12 13.4 101600 40
2012-05-29 02:40:37 51°13.637 2°56.017 -999 16 13.4 101600 40
2012-05-29 02:40:42 51°13.637 2°56.017 -999 15 13.4 101600 40
2012-05-29 02:40:47 51°13.637 2°56.017 -999 15 13.4 101600 38
2012-05-29 02:40:52 51°13.637 2°56.017 -999 13 13.4 101600 38
2012-05-29 02:40:57 51°13.637 2°56.017 -999 13 13.4 101600 40
2012-05-29 02:41:02 51°13.637 2°56.017 -999 10 13.4 101600 40
2012-05-29 02:41:07 51°13.637 2°56.017 -999 11 13.4 101600 40
2012-05-29 02:41:12 51°13.637 2°56.017 -999 9 13.4 101600 40
2012-05-29 02:41:17 51°13.637 2°56.017 -999 9 13.4 101600 40
2012-05-29 02:41:21 51°13.637 2°56.017 -999 9 13.4 101600 40
2012-05-29 02:41:27 51°13.637 2°56.017 -999 8 13.4 101600 40
2012-05-29 02:41:32 51°13.637 2°56.017 -999 -999 13.4 101600 40
2012-05-29 02:41:36 51°13.637 2°56.017 -999 360 13.4 101600 40
2012-05-29 02:41:41 51°13.637 2°56.017 -999 1 13.4 101600 40
2012-05-29 02:41:47 51°13.637 2°56.017 -999 5 13.4 101600 40
2012-05-29 02:41:51 51°13.637 2°56.017 -999 3 13.4 101600 40
2012-05-29 02:41:56 51°13.637 2°56.017 -999 5 13.4 101600 40
2012-05-29 02:42:01 51°13.637 2°56.017 -999 11 13.4 101600 40
2012-05-29 02:42:06 51°13.637 2°56.017 -999 18 13.4 101590 40
2012-05-29 02:42:11 51°13.637 2°56.018 -999 6 13.4 101590 40
2012-05-29 02:42:16 51°13.637 2°56.018 -999 11 13.4 101600 40
2012-05-29 02:42:21 51°13.637 2°56.018 -999 14 13.4 101600 40
2012-05-29 02:42:26 51°13.637 2°56.018 -999 7 13.4 101600 40
2012-05-29 02:42:31 51°13.637 2°56.018 -999 9 13.4 101600 40
2012-05-29 02:42:36 51°13.637 2°56.018 -999 360 13.4 101600 40
2012-05-29 02:42:41 51°13.637 2°56.018 -999 2 13.4 101600 40
2012-05-29 02:42:46 51°13.637 2°56.019 -999 4 13.4 101600 40
2012-05-29 02:42:51 51°13.637 2°56.019 -999 3 13.4 101600 40
2012-05-29 02:42:56 51°13.637 2°56.019 -999 3 13.4 101600 40
2012-05-29 02:43:02 51°13.637 2°56.019 -999 357 13.4 101600 40
2012-05-29 02:43:07 51°13.637 2°56.019 -999 2 13.4 101590 40
2012-05-29 02:43:12 51°13.637 2°56.019 -999 9 13.4 101590 40
2012-05-29 02:43:17 51°13.637 2°56.019 -999 20 13.4 101590 40
2012-05-29 02:43:22 51°13.637 2°56.019 -999 28 13.4 101590 40
2012-05-29 02:43:27 51°13.637 2°56.019 -999 21 13.4 101590 38
2012-05-29 02:43:31 51°13.637 2°56.019 -999 15 13.4 101590 38
2012-05-29 02:43:36 51°13.637 2°56.019 -999 18 13.4 101590 40
2012-05-29 02:43:41 51°13.637 2°56.019 -999 17 13.4 101590 40
2012-05-29 02:43:46 51°13.637 2°56.019 -999 8 13.4 101590 40
2012-05-29 02:43:52 51°13.636 2°56.019 -999 6 13.4 101590 40
2012-05-29 02:43:56 51°13.636 2°56.019 -999 6 13.4 101590 39
2012-05-29 02:44:01 51°13.636 2°56.019 -999 11 13.4 101590 39
2012-05-29 02:44:06 51°13.636 2°56.019 -999 11 13.4 101590 40
2012-05-29 02:44:11 51°13.636 2°56.019 -999 9 13.4 101590 40
2012-05-29 02:44:16 51°13.636 2°56.019 -999 5 13.4 101590 40
2012-05-29 02:44:22 51°13.636 2°56.019 -999 3 13.4 101590 40
2012-05-29 02:44:27 51°13.636 2°56.019 -999 8 13.4 101590 39
2012-05-29 02:44:32 51°13.636 2°56.019 -999 12 13.4 101590 39
2012-05-29 02:44:37 51°13.636 2°56.019 -999 4 13.4 101590 40
2012-05-29 02:44:42 51°13.636 2°56.019 -999 4 13.4 101590 40
2012-05-29 02:44:47 51°13.636 2°56.019 -999 359 13.4 101590 40
2012-05-29 02:44:52 51°13.636 2°56.019 -999 1 13.4 101590 40
2012-05-29 02:44:57 51°13.636 2°56.019 -999 3 13.4 101590 40
2012-05-29 02:45:02 51°13.636 2°56.019 -999 14 13.4 101590 40
2012-05-29 02:45:07 51°13.636 2°56.019 -999 16 13.4 101590 40
2012-05-29 02:45:12 51°13.636 2°56.019 -999 29 13.4 101590 40
2012-05-29 02:45:17 51°13.636 2°56.019 -999 17 13.3 101590 40
2012-05-29 02:45:22 51°13.636 2°56.019 -999 17 13.3 101590 40
2012-05-29 02:45:27 51°13.636 2°56.019 -999 17 13.4 101590 40
2012-05-29 02:45:32 51°13.636 2°56.019 -999 8 13.4 101590 40
2012-05-29 02:45:36 51°13.636 2°56.019 -999 7 13.3 101590 40
2012-05-29 02:45:41 51°13.636 2°56.019 -999 12 13.3 101590 40
2012-05-29 02:45:46 51°13.636 2°56.019 -999 10 13.3 101590 40
2012-05-29 02:45:51 51°13.636 2°56.019 -999 5 13.3 101590 40
2012-05-29 02:45:56 51°13.636 2°56.019 -999 6 13.3 101590 40
2012-05-29 02:46:01 51°13.636 2°56.019 -999 3 13.3 101590 40
2012-05-29 02:46:06 51°13.636 2°56.019 -999 8 13.3 101590 38
2012-05-29 02:46:11 51°13.636 2°56.019 -999 357 13.3 101590 38
2012-05-29 02:46:16 51°13.636 2°56.018 -999 10 13.4 101590 40
2012-05-29 02:46:21 51°13.636 2°56.018 -999 9 13.4 101590 40
2012-05-29 02:46:26 51°13.636 2°56.018 -999 11 13.3 101590 40
2012-05-29 02:46:32 51°13.636 2°56.018 -999 8 13.3 101590 40
2012-05-29 02:46:37 51°13.636 2°56.019 -999 9 13.3 101590 40
2012-05-29 02:46:42 51°13.636 2°56.019 -999 11 13.3 101590 40
2012-05-29 02:46:47 51°13.636 2°56.019 -999 9 13.4 101590 40
2012-05-29 02:46:52 51°13.636 2°56.019 -999 25 13.4 101590 40
2012-05-29 02:46:57 51°13.636 2°56.019 -999 19 13.3 101590 40
2012-05-29 02:47:02 51°13.636 2°56.019 -999 31 13.3 101590 40
2012-05-29 02:47:07 51°13.636 2°56.019 -999 23 13.3 101590 40
2012-05-29 02:47:12 51°13.636 2°56.019 -999 15 13.3 101590 40
2012-05-29 02:47:17 51°13.636 2°56.019 -999 13 13.3 101590 40
2012-05-29 02:47:21 51°13.636 2°56.019 -999 12 13.3 101590 40
2012-05-29 02:47:27 51°13.636 2°56.019 -999 10 13.3 101600 40
2012-05-29 02:47:31 51°13.636 2°56.019 -999 21 13.3 101600 40
2012-05-29 02:47:36 51°13.637 2°56.019 -999 24 13.3 101590 40
2012-05-29 02:47:41 51°13.637 2°56.019 -999 13 13.3 101590 40
2012-05-29 02:47:46 51°13.637 2°56.019 -999 14 13.3 101590 40
2012-05-29 02:47:51 51°13.637 2°56.019 -999 19 13.3 101590 40
2012-05-29 02:47:56 51°13.637 2°56.019 -999 15 13.3 101590 40
2012-05-29 02:48:02 51°13.637 2°56.019 -999 17 13.3 101590 40
2012-05-29 02:48:07 51°13.637 2°56.019 -999 15 13.3 101590 40
2012-05-29 02:48:12 51°13.637 2°56.019 -999 22 13.3 101590 40
2012-05-29 02:48:17 51°13.637 2°56.019 -999 12 13.3 101590 40
2012-05-29 02:48:21 51°13.637 2°56.019 -999 21 13.3 101590 40
2012-05-29 02:48:27 51°13.637 2°56.019 -999 22 13.3 101590 40
2012-05-29 02:48:32 51°13.637 2°56.019 -999 23 13.3 101590 40
2012-05-29 02:48:36 51°13.637 2°56.019 -999 32 13.3 101590 40
2012-05-29 02:48:41 51°13.637 2°56.019 -999 19 13.3 101590 40
2012-05-29 02:48:46 51°13.637 2°56.019 -999 20 13.3 101590 38
2012-05-29 02:48:51 51°13.637 2°56.019 -999 4 13.3 101590 38
2012-05-29 02:48:56 51°13.637 2°56.019 -999 355 13.3 101600 40
2012-05-29 02:49:01 51°13.637 2°56.019 -999 10 13.3 101600 40
2012-05-29 02:49:07 51°13.637 2°56.019 -999 3 13.3 101590 40
2012-05-29 02:49:12 51°13.637 2°56.019 -999 3 13.3 101590 40
2012-05-29 02:49:17 51°13.637 2°56.019 -999 5 13.3 101590 40
2012-05-29 02:49:21 51°13.636 2°56.019 -999 17 13.3 101590 40
2012-05-29 02:49:26 51°13.636 2°56.019 -999 16 13.3 101590 40
2012-05-29 02:49:32 51°13.636 2°56.019 -999 23 13.3 101590 40
2012-05-29 02:49:37 51°13.636 2°56.019 -999 23 13.3 101590 40
2012-05-29 02:49:42 51°13.636 2°56.019 -999 22 13.3 101590 40
2012-05-29 02:49:47 51°13.636 2°56.019 -999 22 13.3 101590 40
2012-05-29 02:49:52 51°13.636 2°56.019 -999 24 13.3 101590 40
2012-05-29 02:49:57 51°13.636 2°56.019 -999 25 13.3 101590 40
2012-05-29 02:50:02 51°13.636 2°56.019 -999 20 13.3 101590 40
2012-05-29 02:50:07 51°13.636 2°56.019 -999 18 13.3 101590 40
2012-05-29 02:50:11 51°13.636 2°56.019 -999 27 13.3 101590 40
2012-05-29 02:50:16 51°13.636 2°56.019 -999 24 13.3 101590 40
2012-05-29 02:50:21 51°13.636 2°56.019 -999 36 13.3 101590 40
2012-05-29 02:50:26 51°13.636 2°56.019 -999 24 13.3 101590 40
2012-05-29 02:50:31 51°13.636 2°56.019 -999 36 13.3 101590 40
2012-05-29 02:50:36 51°13.636 2°56.019 -999 24 13.3 101590 40
2012-05-29 02:50:41 51°13.636 2°56.019 -999 36 13.3 101590 40
2012-05-29 02:50:46 51°13.636 2°56.019 -999 24 13.3 101590 40
2012-05-29 02:50:52 51°13.636 2°56.019 -999 35 13.3 101590 40
2012-05-29 02:50:57 51°13.636 2°56.019 -999 24 13.3 101590 40
2012-05-29 02:51:02 51°13.636 2°56.019 -999 36 13.3 101590 40
2012-05-29 02:51:07 51°13.637 2°56.02 -999 24 13.3 101590 40
2012-05-29 02:51:12 51°13.636 2°56.02 -999 36 13.3 101590 40
2012-05-29 02:51:17 51°13.637 2°56.02 -999 24 13.3 101590 40
2012-05-29 02:51:22 51°13.637 2°56.02 -999 36 13.3 101590 40
2012-05-29 02:51:27 51°13.637 2°56.02 -999 24 13.3 101590 38
2012-05-29 02:51:31 51°13.637 2°56.02 -999 36 13.3 101590 38
2012-05-29 02:51:36 51°13.637 2°56.02 -999 24 13.3 101590 40
2012-05-29 02:51:41 51°13.637 2°56.02 -999 36 13.3 101590 40
2012-05-29 02:51:46 51°13.637 2°56.02 -999 24 13.3 101590 40
2012-05-29 02:51:51 51°13.637 2°56.019 -999 36 13.3 101590 40
2012-05-29 02:51:56 51°13.637 2°56.019 -999 24 13.3 101590 40
2012-05-29 02:52:01 51°13.637 2°56.019 -999 36 13.3 101590 40
2012-05-29 02:52:06 51°13.637 2°56.019 -999 24 13.3 101590 40
2012-05-29 02:52:11 51°13.637 2°56.019 -999 36 13.3 101590 40
2012-05-29 02:52:16 51°13.637 2°56.019 -999 24 13.3 101590 40
2012-05-29 02:52:21 51°13.637 2°56.019 -999 36 13.3 101590 40
2012-05-29 02:52:26 51°13.637 2°56.019 -999 24 13.3 101590 40
2012-05-29 02:52:31 51°13.637 2°56.019 -999 36 13.3 101590 40
2012-05-29 02:52:36 51°13.637 2°56.019 -999 24 13.3 101590 40
2012-05-29 02:52:41 51°13.637 2°56.019 -999 36 13.3 101590 40
2012-05-29 02:52:46 51°13.637 2°56.019 -999 24 13.3 101590 40
2012-05-29 02:52:51 51°13.637 2°56.019 -999 35 13.3 101590 40
2012-05-29 02:52:56 51°13.637 2°56.019 -999 24 13.3 101590 40
2012-05-29 02:53:01 51°13.637 2°56.019 -999 35 13.3 101590 40
2012-05-29 02:53:06 51°13.637 2°56.019 -999 24 13.3 101590 40
2012-05-29 02:53:11 51°13.637 2°56.019 -999 28 13.3 101590 40
2012-05-29 02:53:16 51°13.637 2°56.018 -999 15 13.3 101590 40
2012-05-29 02:53:21 51°13.637 2°56.018 -999 13 13.3 101590 40
2012-05-29 02:53:26 51°13.636 2°56.018 -999 9 13.3 101590 40
2012-05-29 02:53:31 51°13.636 2°56.018 -999 27 13.3 101590 40
2012-05-29 02:53:36 51°13.637 2°56.018 -999 27 13.3 101590 40
2012-05-29 02:53:41 51°13.637 2°56.018 -999 11 13.3 101590 40
2012-05-29 02:53:46 51°13.637 2°56.019 -999 22 13.3 101590 40
2012-05-29 02:53:51 51°13.636 2°56.019 -999 26 13.3 101590 40
2012-05-29 02:53:56 51°13.636 2°56.019 -999 20 13.3 101590 40
2012-05-29 02:54:01 51°13.636 2°56.019 -999 31 13.3 101590 40
2012-05-29 02:54:06 51°13.636 2°56.019 -999 33 13.3 101590 38
2012-05-29 02:54:11 51°13.636 2°56.019 -999 42 13.3 101590 38
2012-05-29 02:54:16 51°13.636 2°56.019 -999 36 13.3 101590 40
2012-05-29 02:54:21 51°13.636 2°56.019 -999 36 13.3 101590 40
2012-05-29 02:54:26 51°13.637 2°56.019 -999 43 13.3 101590 40
2012-05-29 02:54:31 51°13.637 2°56.019 -999 36 13.3 101590 40
2012-05-29 02:54:36 51°13.637 2°56.019 -999 25 13.2 101590 40
2012-05-29 02:54:41 51°13.637 2°56.019 -999 22 13.2 101590 40
2012-05-29 02:54:46 51°13.637 2°56.019 -999 26 13.2 101590 40
2012-05-29 02:54:51 51°13.636 2°56.019 -999 26 13.2 101590 40
2012-05-29 02:54:57 51°13.636 2°56.019 -999 30 13.2 101590 40
2012-05-29 02:55:02 51°13.636 2°56.019 -999 38 13.2 101590 40
2012-05-29 02:55:07 51°13.636 2°56.019 -999 38 13.3 101590 40
2012-05-29 02:55:12 51°13.636 2°56.019 -999 34 13.3 101590 40
2012-05-29 02:55:17 51°13.636 2°56.019 -999 33 13.2 101590 39
2012-05-29 02:55:22 51°13.636 2°56.019 -999 5 13.2 101590 39
2012-05-29 02:55:27 51°13.636 2°56.019 -999 11 13.2 101590 40
2012-05-29 02:55:32 51°13.636 2°56.019 -999 13 13.2 101590 40
2012-05-29 02:55:37 51°13.636 2°56.019 -999 11 13.2 101590 40
2012-05-29 02:55:42 51°13.636 2°56.019 -999 -999 13.2 101590 40
2012-05-29 02:55:47 51°13.636 2°56.019 -999 357 13.2 101590 40
2012-05-29 02:55:52 51°13.636 2°56.019 -999 22 13.2 101590 40
2012-05-29 02:55:57 51°13.636 2°56.019 -999 22 13.2 101590 40
2012-05-29 02:56:02 51°13.636 2°56.019 -999 21 13.2 101590 40
2012-05-29 02:56:07 51°13.636 2°56.019 -999 21 13.2 101590 40
2012-05-29 02:56:12 51°13.636 2°56.019 -999 17 13.2 101590 40
2012-05-29 02:56:17 51°13.636 2°56.019 -999 15 13.2 101590 40
2012-05-29 02:56:22 51°13.636 2°56.019 -999 8 13.2 101590 40
2012-05-29 02:56:27 51°13.636 2°56.019 -999 1 13.2 101590 40
2012-05-29 02:56:32 51°13.637 2°56.019 -999 2 13.2 101590 40
2012-05-29 02:56:37 51°13.636 2°56.019 -999 8 13.2 101590 40
2012-05-29 02:56:42 51°13.637 2°56.019 -999 24 13.2 101590 40
2012-05-29 02:56:47 51°13.637 2°56.019 -999 28 13.2 101590 38
2012-05-29 02:56:52 51°13.637 2°56.019 -999 32 13.2 101590 38
2012-05-29 02:56:57 51°13.637 2°56.019 -999 32 13.2 101590 40
2012-05-29 02:57:02 51°13.637 2°56.019 -999 29 13.2 101590 40
2012-05-29 02:57:06 51°13.637 2°56.019 -999 20 13.2 101590 40
2012-05-29 02:57:11 51°13.637 2°56.019 -999 22 13.2 101590 40
2012-05-29 02:57:16 51°13.637 2°56.019 -999 19 13.2 101590 40
2012-05-29 02:57:21 51°13.637 2°56.019 -999 28 13.2 101590 40
2012-05-29 02:57:26 51°13.637 2°56.019 -999 26 13.2 101590 40
2012-05-29 02:57:31 51°13.637 2°56.019 -999 26 13.2 101590 40
2012-05-29 02:57:36 51°13.637 2°56.019 -999 22 13.2 101590 40
2012-05-29 02:57:41 51°13.637 2°56.019 -999 25 13.2 101590 40
2012-05-29 02:57:46 51°13.637 2°56.019 -999 25 13.2 101590 40
2012-05-29 02:57:51 51°13.637 2°56.019 -999 21 13.2 101590 40
2012-05-29 02:57:56 51°13.637 2°56.019 -999 20 13.2 101590 40
2012-05-29 02:58:01 51°13.637 2°56.019 -999 28 13.2 101590 40
2012-05-29 02:58:06 51°13.637 2°56.019 -999 27 13.2 101590 40
2012-05-29 02:58:11 51°13.637 2°56.019 -999 23 13.2 101590 40
2012-05-29 02:58:16 51°13.637 2°56.019 -999 27 13.2 101590 40
2012-05-29 02:58:22 51°13.637 2°56.02 -999 26 13.2 101590 40
2012-05-29 02:58:26 51°13.637 2°56.02 -999 18 13.2 101590 40
2012-05-29 02:58:31 51°13.637 2°56.02 -999 12 13.2 101590 40
2012-05-29 02:58:36 51°13.637 2°56.02 -999 15 13.2 101590 40
2012-05-29 02:58:41 51°13.637 2°56.019 -999 25 13.2 101590 40
2012-05-29 02:58:46 51°13.637 2°56.019 -999 23 13.2 101590 40
2012-05-29 02:58:51 51°13.637 2°56.019 -999 14 13.2 101590 40
2012-05-29 02:58:56 51°13.637 2°56.019 -999 16 13.2 101590 40
2012-05-29 02:59:01 51°13.637 2°56.019 -999 18 13.2 101590 40
2012-05-29 02:59:06 51°13.637 2°56.019 -999 22 13.2 101590 40
2012-05-29 02:59:11 51°13.637 2°56.019 -999 25 13.2 101590 40
2012-05-29 02:59:16 51°13.637 2°56.019 -999 31 13.2 101590 40
2012-05-29 02:59:21 51°13.637 2°56.019 -999 21 13.2 101590 40
2012-05-29 02:59:26 51°13.637 2°56.019 -999 18 13.2 101590 38
2012-05-29 02:59:31 51°13.637 2°56.019 -999 13 13.2 101590 38
2012-05-29 02:59:36 51°13.637 2°56.019 -999 26 13.2 101590 40
2012-05-29 02:59:41 51°13.637 2°56.019 -999 19 13.2 101590 40
2012-05-29 02:59:46 51°13.637 2°56.019 -999 20 13.2 101590 40
2012-05-29 02:59:51 51°13.637 2°56.019 -999 21 13.2 101590 40
2012-05-29 02:59:57 51°13.637 2°56.019 -999 18 13.2 101580 40
2012-05-29 03:00:02 51°13.637 2°56.018 -999 24 13.2 101580 40
2012-05-29 03:00:07 51°13.637 2°56.018 -999 15 13.2 101590 40
2012-05-29 03:00:12 51°13.637 2°56.018 -999 23 13.2 101590 40
2012-05-29 03:00:17 51°13.637 2°56.018 -999 23 13.2 101580 40
2012-05-29 03:00:22 51°13.637 2°56.018 -999 20 13.2 101580 40
2012-05-29 03:00:26 51°13.637 2°56.018 -999 18 13.2 101590 40
2012-05-29 03:00:31 51°13.637 2°56.018 -999 21 13.2 101590 40
2012-05-29 03:00:37 51°13.637 2°56.018 -999 21 13.2 101580 40
2012-05-29 03:00:41 51°13.637 2°56.018 -999 22 13.2 101580 40
2012-05-29 03:00:46 51°13.637 2°56.018 -999 22 13.2 101580 40
2012-05-29 03:00:51 51°13.637 2°56.018 -999 25 13.2 101580 40
2012-05-29 03:00:57 51°13.637 2°56.018 -999 24 13.2 101580 40
2012-05-29 03:01:02 51°13.637 2°56.018 -999 19 13.2 101580 40
2012-05-29 03:01:07 51°13.637 2°56.018 -999 19 13.2 101590 40
2012-05-29 03:01:12 51°13.637 2°56.018 -999 20 13.2 101590 40
2012-05-29 03:01:17 51°13.637 2°56.018 -999 20 13.2 101580 40
2012-05-29 03:01:22 51°13.637 2°56.018 -999 13 13.2 101580 40
2012-05-29 03:01:27 51°13.637 2°56.018 -999 19 13.2 101590 40
2012-05-29 03:01:32 51°13.637 2°56.018 -999 2 13.2 101590 40
2012-05-29 03:01:37 51°13.637 2°56.018 -999 2 13.2 101590 40
2012-05-29 03:01:42 51°13.637 2°56.018 -999 7 13.2 101590 40
2012-05-29 03:01:46 51°13.637 2°56.018 -999 5 13.2 101580 40
2012-05-29 03:01:51 51°13.637 2°56.018 -999 14 13.2 101580 40
2012-05-29 03:01:56 51°13.637 2°56.018 -999 19 13.2 101580 40
2012-05-29 03:02:01 51°13.637 2°56.018 -999 13 13.2 101580 40
2012-05-29 03:02:06 51°13.637 2°56.018 -999 13 13.2 101590 38
2012-05-29 03:02:11 51°13.637 2°56.018 -999 11 13.2 101590 38
2012-05-29 03:02:16 51°13.637 2°56.018 -999 22 13.2 101580 40
2012-05-29 03:02:21 51°13.637 2°56.018 -999 16 13.2 101580 40
2012-05-29 03:02:27 51°13.637 2°56.018 -999 15 13.2 101580 40
2012-05-29 03:02:32 51°13.637 2°56.018 -999 19 13.2 101580 40
2012-05-29 03:02:37 51°13.637 2°56.018 -999 26 13.2 101580 40
2012-05-29 03:02:42 51°13.637 2°56.018 -999 31 13.2 101580 40
2012-05-29 03:02:47 51°13.637 2°56.018 -999 28 13.2 101590 40
2012-05-29 03:02:52 51°13.637 2°56.018 -999 12 13.2 101590 40
2012-05-29 03:02:56 51°13.637 2°56.018 -999 16 13.2 101580 40
2012-05-29 03:03:01 51°13.637 2°56.018 -999 20 13.2 101580 40
2012-05-29 03:03:06 51°13.637 2°56.018 -999 26 13.2 101580 40
2012-05-29 03:03:11 51°13.637 2°56.018 -999 26 13.2 101580 40
2012-05-29 03:03:16 51°13.637 2°56.018 -999 18 13.2 101580 40
2012-05-29 03:03:21 51°13.637 2°56.018 -999 27 13.2 101580 40
2012-05-29 03:03:26 51°13.637 2°56.018 -999 25 13.2 101580 40
2012-05-29 03:03:32 51°13.637 2°56.018 -999 24 13.2 101580 40
2012-05-29 03:03:36 51°13.637 2°56.018 -999 22 13.2 101580 40
2012-05-29 03:03:41 51°13.637 2°56.018 -999 21 13.2 101580 40
2012-05-29 03:03:46 51°13.637 2°56.018 -999 23 13.2 101580 40
2012-05-29 03:03:52 51°13.637 2°56.018 -999 22 13.2 101580 40
2012-05-29 03:03:57 51°13.637 2°56.018 -999 19 13.2 101580 40
2012-05-29 03:04:02 51°13.637 2°56.018 -999 25 13.2 101580 40
2012-05-29 03:04:07 51°13.637 2°56.018 -999 29 13.2 101580 40
2012-05-29 03:04:12 51°13.637 2°56.018 -999 24 13.2 101580 40
2012-05-29 03:04:17 51°13.637 2°56.018 -999 35 13.2 101580 40
2012-05-29 03:04:22 51°13.637 2°56.018 -999 18 13.2 101580 40
2012-05-29 03:04:26 51°13.637 2°56.018 -999 14 13.2 101580 40
2012-05-29 03:04:32 51°13.637 2°56.019 -999 21 13.2 101580 40
2012-05-29 03:04:37 51°13.637 2°56.019 -999 19 13.2 101580 40
2012-05-29 03:04:42 51°13.636 2°56.019 -999 32 13.2 101580 40
2012-05-29 03:04:46 51°13.636 2°56.019 -999 21 13.2 101580 38
2012-05-29 03:04:51 51°13.636 2°56.019 -999 31 13.2 101580 38
2012-05-29 03:04:56 51°13.636 2°56.019 -999 31 13.2 101580 40
2012-05-29 03:05:01 51°13.636 2°56.019 -999 12 13.2 101580 40
2012-05-29 03:05:06 51°13.636 2°56.019 -999 4 13.2 101580 40
2012-05-29 03:05:11 51°13.636 2°56.019 -999 8 13.2 101580 40
2012-05-29 03:05:17 51°13.637 2°56.019 -999 9 13.2 101580 39
2012-05-29 03:05:21 51°13.637 2°56.019 -999 9 13.2 101580 39
2012-05-29 03:05:26 51°13.636 2°56.019 -999 9 13.2 101580 40
2012-05-29 03:05:31 51°13.636 2°56.019 -999 35 13.2 101580 40
2012-05-29 03:05:37 51°13.636 2°56.019 -999 35 13.2 101580 39
2012-05-29 03:05:42 51°13.636 2°56.019 -999 28 13.2 101580 39
2012-05-29 03:05:47 51°13.637 2°56.019 -999 22 13.2 101580 39
2012-05-29 03:05:52 51°13.637 2°56.018 -999 30 13.2 101580 39
2012-05-29 03:05:57 51°13.637 2°56.018 -999 16 13.2 101580 39
2012-05-29 03:06:02 51°13.637 2°56.018 -999 25 13.2 101580 39
2012-05-29 03:06:07 51°13.637 2°56.018 -999 24 13.2 101580 39
2012-05-29 03:06:12 51°13.637 2°56.018 -999 14 13.2 101580 39
2012-05-29 03:06:17 51°13.637 2°56.018 -999 14 13.2 101580 39
2012-05-29 03:06:22 51°13.637 2°56.018 -999 18 13.2 101580 39
2012-05-29 03:06:27 51°13.637 2°56.018 -999 23 13.2 101580 39
2012-05-29 03:06:32 51°13.637 2°56.018 -999 28 13.2 101580 39
2012-05-29 03:06:37 51°13.637 2°56.018 -999 26 13.2 101580 39
2012-05-29 03:06:42 51°13.637 2°56.018 -999 24 13.2 101580 39
2012-05-29 03:06:47 51°13.636 2°56.018 -999 25 13.2 101580 39
2012-05-29 03:06:52 51°13.636 2°56.018 -999 29 13.2 101580 39
2012-05-29 03:06:57 51°13.636 2°56.018 -999 23 13.2 101580 39
2012-05-29 03:07:02 51°13.636 2°56.018 -999 36 13.2 101580 39
2012-05-29 03:07:07 51°13.636 2°56.018 -999 32 13.2 101580 39
2012-05-29 03:07:12 51°13.636 2°56.018 -999 31 13.2 101580 39
2012-05-29 03:07:17 51°13.636 2°56.018 -999 31 13.2 101580 39
2012-05-29 03:07:22 51°13.636 2°56.018 -999 3 13.2 101580 39
2012-05-29 03:07:27 51°13.636 2°56.018 -999 3 13.2 101580 38
2012-05-29 03:07:32 51°13.636 2°56.018 -999 6 13.2 101580 38
2012-05-29 03:07:37 51°13.636 2°56.018 -999 6 13.2 101580 40
2012-05-29 03:07:42 51°13.636 2°56.018 -999 5 13.2 101580 40
2012-05-29 03:07:47 51°13.636 2°56.019 -999 3 13.2 101580 40
2012-05-29 03:07:52 51°13.636 2°56.019 -999 357 13.2 101580 40
2012-05-29 03:07:57 51°13.636 2°56.019 -999 356 13.2 101580 40
2012-05-29 03:08:02 51°13.636 2°56.019 -999 2 13.2 101580 40
2012-05-29 03:08:07 51°13.636 2°56.018 -999 2 13.2 101580 40
2012-05-29 03:08:11 51°13.637 2°56.018 -999 3 13.2 101580 40
2012-05-29 03:08:16 51°13.636 2°56.018 -999 4 13.2 101580 40
2012-05-29 03:08:21 51°13.636 2°56.018 -999 5 13.2 101580 40
2012-05-29 03:08:26 51°13.636 2°56.018 -999 6 13.2 101580 39
2012-05-29 03:08:32 51°13.636 2°56.018 -999 17 13.2 101580 39
2012-05-29 03:08:37 51°13.636 2°56.018 -999 17 13.2 101580 40
2012-05-29 03:08:42 51°13.636 2°56.018 -999 17 13.2 101580 40
2012-05-29 03:08:47 51°13.636 2°56.018 -999 17 13.2 101580 40
2012-05-29 03:08:52 51°13.636 2°56.018 -999 8 13.2 101580 40
2012-05-29 03:08:57 51°13.636 2°56.018 -999 12 13.2 101580 40
2012-05-29 03:09:02 51°13.636 2°56.018 -999 12 13.2 101580 40
2012-05-29 03:09:07 51°13.636 2°56.018 -999 12 13.2 101580 40
2012-05-29 03:09:11 51°13.636 2°56.018 -999 21 13.2 101580 40
2012-05-29 03:09:17 51°13.636 2°56.018 -999 21 13.2 101580 40
2012-05-29 03:09:22 51°13.636 2°56.018 -999 24 13.2 101580 40
2012-05-29 03:09:27 51°13.636 2°56.018 -999 25 13.2 101580 40
2012-05-29 03:09:32 51°13.636 2°56.018 -999 347 13.2 101580 40
2012-05-29 03:09:36 51°13.636 2°56.018 -999 351 13.2 101580 39
2012-05-29 03:09:41 51°13.636 2°56.018 -999 360 13.2 101580 39
2012-05-29 03:09:46 51°13.636 2°56.018 -999 360 13.2 101580 39
2012-05-29 03:09:52 51°13.636 2°56.018 -999 8 13.2 101580 39
2012-05-29 03:09:56 51°13.635 2°56.018 -999 12 13.2 101580 39
2012-05-29 03:10:02 51°13.635 2°56.018 -999 12 13.2 101580 39
2012-05-29 03:10:06 51°13.635 2°56.018 -999 12 13.2 101570 38
2012-05-29 03:10:12 51°13.635 2°56.018 -999 12 13.2 101570 38
2012-05-29 03:10:17 51°13.635 2°56.018 -999 12 13.2 101580 39
2012-05-29 03:10:22 51°13.635 2°56.018 -999 20 13.2 101580 39
2012-05-29 03:10:27 51°13.635 2°56.018 -999 7 13.2 101570 40
2012-05-29 03:10:32 51°13.635 2°56.019 -999 11 13.2 101570 40
2012-05-29 03:10:36 51°13.635 2°56.019 -999 10 13.2 101570 40
2012-05-29 03:10:41 51°13.635 2°56.019 -999 23 13.2 101570 40
2012-05-29 03:10:46 51°13.635 2°56.019 -999 16 13.2 101580 40
2012-05-29 03:10:51 51°13.635 2°56.019 -999 20 13.2 101580 40
2012-05-29 03:10:56 51°13.635 2°56.019 -999 19 13.2 101570 40
2012-05-29 03:11:02 51°13.635 2°56.019 -999 3 13.2 101570 40
2012-05-29 03:11:06 51°13.635 2°56.019 -999 3 13.2 101570 40
2012-05-29 03:11:11 51°13.635 2°56.019 -999 1 13.2 101570 40
2012-05-29 03:11:16 51°13.635 2°56.019 -999 1 13.2 101570 40
2012-05-29 03:11:22 51°13.635 2°56.019 -999 360 13.2 101570 40
2012-05-29 03:11:27 51°13.635 2°56.019 -999 360 13.2 101570 39
2012-05-29 03:11:32 51°13.635 2°56.019 -999 5 13.2 101570 39
2012-05-29 03:11:37 51°13.635 2°56.019 -999 7 13.2 101570 40
2012-05-29 03:11:42 51°13.635 2°56.019 -999 9 13.2 101570 40
2012-05-29 03:11:47 51°13.635 2°56.019 -999 15 13.2 101570 40
2012-05-29 03:11:52 51°13.635 2°56.019 -999 10 13.2 101570 40
2012-05-29 03:11:57 51°13.635 2°56.019 -999 11 13.2 101570 40
2012-05-29 03:12:02 51°13.635 2°56.019 -999 8 13.2 101570 40
2012-05-29 03:12:07 51°13.635 2°56.019 -999 8 13.2 101570 40
2012-05-29 03:12:12 51°13.635 2°56.019 -999 12 13.2 101570 40
2012-05-29 03:12:17 51°13.635 2°56.019 -999 8 13.2 101570 40
2012-05-29 03:12:21 51°13.635 2°56.019 -999 4 13.2 101570 40
2012-05-29 03:12:27 51°13.635 2°56.019 -999 4 13.2 101570 39
2012-05-29 03:12:32 51°13.635 2°56.019 -999 5 13.2 101570 39
2012-05-29 03:12:36 51°13.635 2°56.02 -999 1 13.1 101570 39
2012-05-29 03:12:41 51°13.635 2°56.02 -999 12 13.1 101570 39
2012-05-29 03:12:47 51°13.635 2°56.02 -999 359 13.1 101570 38
2012-05-29 03:12:51 51°13.635 2°56.02 -999 2 13.1 101570 38
2012-05-29 03:12:57 51°13.635 2°56.02 -999 21 13.1 101570 40
2012-05-29 03:13:02 51°13.635 2°56.02 -999 17 13.1 101570 40
2012-05-29 03:13:07 51°13.635 2°56.019 -999 17 13.1 101570 39
2012-05-29 03:13:12 51°13.635 2°56.019 -999 15 13.1 101570 39
2012-05-29 03:13:17 51°13.635 2°56.019 -999 17 13.1 101570 40
2012-05-29 03:13:22 51°13.635 2°56.018 -999 29 13.1 101570 40
2012-05-29 03:13:27 51°13.635 2°56.018 -999 25 13.1 101570 40
2012-05-29 03:13:32 51°13.635 2°56.018 -999 28 13.1 101570 40
2012-05-29 03:13:36 51°13.635 2°56.018 -999 26 13.1 101570 40
2012-05-29 03:13:41 51°13.635 2°56.018 -999 30 13.1 101570 40
2012-05-29 03:13:46 51°13.635 2°56.018 -999 29 13.1 101570 40
2012-05-29 03:13:51 51°13.635 2°56.018 -999 18 13.1 101570 40
2012-05-29 03:13:56 51°13.635 2°56.018 -999 18 13.1 101570 40
2012-05-29 03:14:01 51°13.636 2°56.018 -999 9 13.1 101570 40
2012-05-29 03:14:06 51°13.636 2°56.018 -999 10 13.1 101570 40
2012-05-29 03:14:11 51°13.636 2°56.018 -999 9 13.1 101570 40
2012-05-29 03:14:16 51°13.636 2°56.018 -999 9 13.1 101570 40
2012-05-29 03:14:21 51°13.636 2°56.018 -999 6 13.1 101570 40
2012-05-29 03:14:27 51°13.636 2°56.018 -999 357 13.1 101570 40
2012-05-29 03:14:32 51°13.636 2°56.018 -999 18 13.1 101570 40
2012-05-29 03:14:37 51°13.636 2°56.018 -999 22 13.1 101570 40
2012-05-29 03:14:42 51°13.636 2°56.018 -999 18 13.1 101570 40
2012-05-29 03:14:47 51°13.636 2°56.018 -999 18 13.1 101570 40
2012-05-29 03:14:52 51°13.636 2°56.018 -999 8 13.1 101570 40
2012-05-29 03:14:57 51°13.636 2°56.018 -999 10 13.1 101570 40
2012-05-29 03:15:02 51°13.636 2°56.018 -999 21 13.1 101570 40
2012-05-29 03:15:06 51°13.636 2°56.018 -999 16 13.1 101570 40
2012-05-29 03:15:11 51°13.636 2°56.019 -999 20 13.1 101570 40
2012-05-29 03:15:16 51°13.636 2°56.019 -999 23 13.1 101570 40
2012-05-29 03:15:21 51°13.636 2°56.019 -999 18 13.1 101570 40
2012-05-29 03:15:26 51°13.636 2°56.019 -999 19 13.1 101570 38
2012-05-29 03:15:31 51°13.636 2°56.019 -999 13 13.1 101570 38
2012-05-29 03:15:36 51°13.636 2°56.019 -999 13 13.1 101570 40
2012-05-29 03:15:41 51°13.636 2°56.019 -999 3 13.1 101570 40
2012-05-29 03:15:46 51°13.636 2°56.019 -999 9 13.1 101570 40
2012-05-29 03:15:52 51°13.636 2°56.019 -999 9 13.1 101570 40
2012-05-29 03:15:57 51°13.636 2°56.019 -999 11 13.1 101570 40
2012-05-29 03:16:02 51°13.636 2°56.019 -999 11 13.1 101570 40
2012-05-29 03:16:07 51°13.636 2°56.019 -999 14 13.1 101570 40
2012-05-29 03:16:12 51°13.636 2°56.019 -999 359 13.1 101570 40
2012-05-29 03:16:17 51°13.636 2°56.019 -999 -999 13.1 101570 40
2012-05-29 03:16:21 51°13.636 2°56.019 -999 4 13.1 101570 40
2012-05-29 03:16:26 51°13.636 2°56.019 -999 7 13.1 101570 40
2012-05-29 03:16:31 51°13.636 2°56.019 -999 4 13.1 101570 40
2012-05-29 03:16:36 51°13.636 2°56.019 -999 6 13.1 101570 40
2012-05-29 03:16:41 51°13.636 2°56.019 -999 360 13.1 101570 40
2012-05-29 03:16:46 51°13.636 2°56.019 -999 2 13.1 101570 40
2012-05-29 03:16:51 51°13.636 2°56.019 -999 6 13.1 101570 40
2012-05-29 03:16:57 51°13.637 2°56.019 -999 8 13.1 101570 40
2012-05-29 03:17:02 51°13.637 2°56.019 -999 16 13.1 101570 40
2012-05-29 03:17:07 51°13.637 2°56.019 -999 16 13.1 101570 40
2012-05-29 03:17:12 51°13.637 2°56.019 -999 19 13.1 101570 40
2012-05-29 03:17:16 51°13.637 2°56.019 -999 13 13.1 101570 40
2012-05-29 03:17:21 51°13.637 2°56.019 -999 15 13.1 101570 40
2012-05-29 03:17:27 51°13.637 2°56.019 -999 14 13.1 101570 40
2012-05-29 03:17:32 51°13.637 2°56.019 -999 8 13.1 101570 40
2012-05-29 03:17:36 51°13.637 2°56.019 -999 8 13.1 101570 39
2012-05-29 03:17:41 51°13.637 2°56.019 -999 9 13.1 101570 39
2012-05-29 03:17:46 51°13.637 2°56.019 -999 10 13.1 101570 40
2012-05-29 03:17:51 51°13.637 2°56.019 -999 8 13.1 101570 40
2012-05-29 03:17:57 51°13.637 2°56.019 -999 25 13.1 101570 40
2012-05-29 03:18:01 51°13.637 2°56.019 -999 19 13.1 101570 40
2012-05-29 03:18:06 51°13.637 2°56.019 -999 14 13.1 101570 38
2012-05-29 03:18:11 51°13.637 2°56.02 -999 16 13.1 101570 38
2012-05-29 03:18:16 51°13.637 2°56.02 -999 14 13.1 101570 40
2012-05-29 03:18:21 51°13.637 2°56.02 -999 5 13.1 101570 40
2012-05-29 03:18:26 51°13.637 2°56.02 -999 5 13.1 101570 40
2012-05-29 03:18:32 51°13.637 2°56.02 -999 14 13.1 101570 40
2012-05-29 03:18:37 51°13.637 2°56.02 -999 5 13.1 101570 40
2012-05-29 03:18:42 51°13.637 2°56.02 -999 13 13.1 101570 40
2012-05-29 03:18:46 51°13.637 2°56.02 -999 15 13.1 101570 40
2012-05-29 03:18:51 51°13.637 2°56.02 -999 19 13.1 101570 40
2012-05-29 03:18:56 51°13.637 2°56.02 -999 21 13.1 101570 40
2012-05-29 03:19:02 51°13.637 2°56.02 -999 17 13.1 101570 40
2012-05-29 03:19:07 51°13.637 2°56.02 -999 28 13.1 101570 40
2012-05-29 03:19:12 51°13.637 2°56.02 -999 14 13.1 101570 40
2012-05-29 03:19:16 51°13.637 2°56.02 -999 14 13.1 101570 40
2012-05-29 03:19:21 51°13.637 2°56.02 -999 360 13.1 101570 40
2012-05-29 03:19:26 51°13.637 2°56.02 -999 -999 13.1 101570 40
2012-05-29 03:19:32 51°13.637 2°56.02 -999 -999 13.1 101570 40
2012-05-29 03:19:37 51°13.637 2°56.02 -999 2 13.1 101570 40
2012-05-29 03:19:42 51°13.637 2°56.02 -999 6 13.1 101570 40
2012-05-29 03:19:47 51°13.637 2°56.02 -999 6 13 101570 40
2012-05-29 03:19:52 51°13.637 2°56.02 -999 10 13 101570 40
2012-05-29 03:19:57 51°13.637 2°56.02 -999 10 13 101570 40
2012-05-29 03:20:02 51°13.637 2°56.02 -999 10 13 101570 40
2012-05-29 03:20:07 51°13.637 2°56.02 -999 10 13.1 101570 40
2012-05-29 03:20:12 51°13.637 2°56.02 -999 8 13.1 101570 40
2012-05-29 03:20:17 51°13.638 2°56.02 -999 8 13 101570 40
2012-05-29 03:20:22 51°13.638 2°56.02 -999 8 13 101570 40
2012-05-29 03:20:27 51°13.638 2°56.02 -999 6 13 101570 40
2012-05-29 03:20:32 51°13.638 2°56.02 -999 5 13 101570 40
2012-05-29 03:20:37 51°13.638 2°56.02 -999 6 13 101570 40
2012-05-29 03:20:42 51°13.638 2°56.02 -999 23 13 101570 40
2012-05-29 03:20:47 51°13.638 2°56.02 -999 26 13.1 101570 38
2012-05-29 03:20:52 51°13.638 2°56.02 -999 25 13.1 101570 38
2012-05-29 03:20:57 51°13.638 2°56.02 -999 16 13 101570 40
2012-05-29 03:21:02 51°13.638 2°56.02 -999 6 13 101570 40
2012-05-29 03:21:07 51°13.638 2°56.02 -999 6 13.1 101570 40
2012-05-29 03:21:11 51°13.638 2°56.02 -999 7 13.1 101570 40
2012-05-29 03:21:16 51°13.638 2°56.02 -999 6 13 101570 40
2012-05-29 03:21:21 51°13.638 2°56.02 -999 8 13 101570 40
2012-05-29 03:21:26 51°13.638 2°56.02 -999 4 13 101570 40
2012-05-29 03:21:31 51°13.638 2°56.02 -999 8 13 101570 40
2012-05-29 03:21:36 51°13.638 2°56.02 -999 7 13 101570 40
2012-05-29 03:21:41 51°13.638 2°56.019 -999 5 13 101570 40
2012-05-29 03:21:46 51°13.638 2°56.019 -999 6 13 101570 40
2012-05-29 03:21:52 51°13.638 2°56.019 -999 13 13 101570 40
2012-05-29 03:21:57 51°13.637 2°56.019 -999 17 13 101570 40
2012-05-29 03:22:02 51°13.637 2°56.019 -999 18 13 101570 40
2012-05-29 03:22:07 51°13.637 2°56.019 -999 15 13 101570 40
2012-05-29 03:22:12 51°13.637 2°56.018 -999 12 13 101570 40
2012-05-29 03:22:17 51°13.638 2°56.018 -999 11 13.1 101570 40
2012-05-29 03:22:22 51°13.638 2°56.018 -999 14 13.1 101570 40
2012-05-29 03:22:27 51°13.638 2°56.018 -999 12 13 101570 40
2012-05-29 03:22:31 51°13.638 2°56.018 -999 12 13 101570 40
2012-05-29 03:22:36 51°13.638 2°56.018 -999 12 13 101570 40
2012-05-29 03:22:41 51°13.638 2°56.018 -999 12 13 101570 40
2012-05-29 03:22:46 51°13.638 2°56.018 -999 9 13 101570 40
2012-05-29 03:22:51 51°13.638 2°56.018 -999 12 13 101570 40
2012-05-29 03:22:57 51°13.638 2°56.018 -999 11 13 101570 40
2012-05-29 03:23:02 51°13.638 2°56.018 -999 7 13 101570 40
2012-05-29 03:23:07 51°13.638 2°56.018 -999 13 13 101570 40
2012-05-29 03:23:12 51°13.638 2°56.018 -999 5 13 101570 40
2012-05-29 03:23:17 51°13.638 2°56.018 -999 9 13 101570 40
2012-05-29 03:23:22 51°13.638 2°56.018 -999 5 13 101570 40
2012-05-29 03:23:27 51°13.638 2°56.018 -999 1 13 101570 38
2012-05-29 03:23:31 51°13.638 2°56.018 -999 1 13 101570 38
2012-05-29 03:23:36 51°13.638 2°56.018 -999 7 13 101580 40
2012-05-29 03:23:41 51°13.638 2°56.018 -999 6 13 101580 40
2012-05-29 03:23:47 51°13.638 2°56.018 -999 6 13 101570 40
2012-05-29 03:23:52 51°13.638 2°56.018 -999 8 13 101570 40
2012-05-29 03:23:57 51°13.638 2°56.018 -999 14 13 101570 40
2012-05-29 03:24:02 51°13.638 2°56.018 -999 16 13 101570 40
2012-05-29 03:24:07 51°13.637 2°56.018 -999 15 13 101570 40
2012-05-29 03:24:12 51°13.637 2°56.018 -999 16 13 101570 40
2012-05-29 03:24:17 51°13.637 2°56.018 -999 18 13.1 101580 40
2012-05-29 03:24:21 51°13.637 2°56.018 -999 16 13.1 101580 40
2012-05-29 03:24:27 51°13.637 2°56.018 -999 16 13 101570 40
2012-05-29 03:24:32 51°13.637 2°56.018 -999 19 13 101570 40
2012-05-29 03:24:37 51°13.637 2°56.018 -999 14 13 101570 40
2012-05-29 03:24:41 51°13.637 2°56.018 -999 7 13 101570 40
2012-05-29 03:24:46 51°13.637 2°56.018 -999 12 13 101570 40
2012-05-29 03:24:51 51°13.637 2°56.019 -999 11 13 101570 40
2012-05-29 03:24:56 51°13.637 2°56.019 -999 11 13 101570 40
2012-05-29 03:25:01 51°13.637 2°56.019 -999 7 13 101570 40
2012-05-29 03:25:07 51°13.637 2°56.019 -999 7 13 101570 40
2012-05-29 03:25:12 51°13.637 2°56.019 -999 12 13 101570 40
2012-05-29 03:25:17 51°13.637 2°56.019 -999 20 13 101570 40
2012-05-29 03:25:22 51°13.637 2°56.02 -999 14 13 101570 40
2012-05-29 03:25:27 51°13.637 2°56.02 -999 14 13 101580 40
2012-05-29 03:25:32 51°13.637 2°56.019 -999 15 13 101580 40
2012-05-29 03:25:37 51°13.636 2°56.019 -999 23 13 101580 40
2012-05-29 03:25:42 51°13.636 2°56.019 -999 21 13 101580 40
2012-05-29 03:25:47 51°13.636 2°56.019 -999 11 13 101580 40
2012-05-29 03:25:52 51°13.636 2°56.019 -999 19 13 101580 40
2012-05-29 03:25:57 51°13.636 2°56.019 -999 20 13 101580 40
2012-05-29 03:26:02 51°13.636 2°56.019 -999 15 13 101580 40
2012-05-29 03:26:07 51°13.636 2°56.018 -999 8 13 101580 38
2012-05-29 03:26:11 51°13.636 2°56.018 -999 10 13 101580 38
2012-05-29 03:26:17 51°13.636 2°56.019 -999 10 13 101580 40
2012-05-29 03:26:21 51°13.636 2°56.019 -999 7 13 101580 40
2012-05-29 03:26:26 51°13.636 2°56.019 -999 7 13 101570 40
2012-05-29 03:26:31 51°13.636 2°56.019 -999 12 13 101570 40
2012-05-29 03:26:37 51°13.637 2°56.019 -999 13 13 101570 40
2012-05-29 03:26:41 51°13.637 2°56.019 -999 7 13 101570 40
2012-05-29 03:26:46 51°13.637 2°56.019 -999 12 13 101570 40
2012-05-29 03:26:51 51°13.637 2°56.019 -999 20 13 101570 40
2012-05-29 03:26:56 51°13.636 2°56.019 -999 13 13 101570 40
2012-05-29 03:27:01 51°13.636 2°56.019 -999 17 13 101570 40
2012-05-29 03:27:06 51°13.636 2°56.019 -999 16 13 101580 40
2012-05-29 03:27:12 51°13.636 2°56.018 -999 7 13 101580 40
2012-05-29 03:27:17 51°13.636 2°56.018 -999 9 13 101570 40
2012-05-29 03:27:22 51°13.636 2°56.018 -999 9 13 101570 40
2012-05-29 03:27:27 51°13.636 2°56.018 -999 8 13 101570 40
2012-05-29 03:27:32 51°13.636 2°56.018 -999 5 13 101570 40
2012-05-29 03:27:37 51°13.636 2°56.018 -999 5 13 101570 40
2012-05-29 03:27:42 51°13.636 2°56.018 -999 1 13 101570 40
2012-05-29 03:27:47 51°13.636 2°56.018 -999 5 13 101570 40
2012-05-29 03:27:52 51°13.636 2°56.018 -999 7 13 101570 40
2012-05-29 03:27:57 51°13.636 2°56.018 -999 7 13 101570 40
2012-05-29 03:28:02 51°13.636 2°56.018 -999 12 13 101570 40
2012-05-29 03:28:07 51°13.636 2°56.018 -999 15 13 101570 40
2012-05-29 03:28:12 51°13.636 2°56.017 -999 14 13 101570 40
2012-05-29 03:28:16 51°13.636 2°56.017 -999 15 13 101570 40
2012-05-29 03:28:21 51°13.636 2°56.017 -999 7 13 101570 40
2012-05-29 03:28:26 51°13.636 2°56.017 -999 11 13 101570 40
2012-05-29 03:28:31 51°13.636 2°56.018 -999 8 13 101570 40
2012-05-29 03:28:37 51°13.636 2°56.018 -999 9 13 101570 40
2012-05-29 03:28:41 51°13.636 2°56.018 -999 3 13 101570 40
2012-05-29 03:28:46 51°13.636 2°56.018 -999 5 13 101570 38
2012-05-29 03:28:51 51°13.636 2°56.018 -999 7 13 101570 38
2012-05-29 03:28:56 51°13.636 2°56.018 -999 7 13 101570 40
2012-05-29 03:29:01 51°13.636 2°56.018 -999 3 13 101570 40
2012-05-29 03:29:07 51°13.636 2°56.018 -999 5 13 101570 40
2012-05-29 03:29:12 51°13.636 2°56.018 -999 2 13 101570 40
2012-05-29 03:29:17 51°13.636 2°56.018 -999 5 13 101570 40
2012-05-29 03:29:22 51°13.636 2°56.018 -999 12 13 101570 40
2012-05-29 03:29:27 51°13.636 2°56.018 -999 11 13 101570 40
2012-05-29 03:29:32 51°13.636 2°56.018 -999 11 13 101570 40
2012-05-29 03:29:37 51°13.636 2°56.018 -999 11 13 101570 40
2012-05-29 03:29:42 51°13.636 2°56.018 -999 12 13 101570 40
2012-05-29 03:29:47 51°13.636 2°56.018 -999 12 13 101570 40
2012-05-29 03:29:52 51°13.636 2°56.018 -999 14 13 101570 40
2012-05-29 03:29:57 51°13.636 2°56.018 -999 14 13 101570 40
2012-05-29 03:30:02 51°13.636 2°56.018 -999 13 13 101570 40
2012-05-29 03:30:06 51°13.636 2°56.018 -999 12 13 101570 40
2012-05-29 03:30:11 51°13.636 2°56.018 -999 4 13 101570 40
2012-05-29 03:30:17 51°13.636 2°56.018 -999 1 12.9 101570 40
2012-05-29 03:30:21 51°13.636 2°56.018 -999 8 12.9 101570 40
2012-05-29 03:30:27 51°13.636 2°56.018 -999 9 12.9 101570 40
2012-05-29 03:30:32 51°13.636 2°56.018 -999 11 12.9 101570 40
2012-05-29 03:30:37 51°13.636 2°56.017 -999 13 12.9 101570 40
2012-05-29 03:30:42 51°13.636 2°56.017 -999 19 12.9 101570 40
2012-05-29 03:30:47 51°13.636 2°56.017 -999 19 13 101570 40
2012-05-29 03:30:52 51°13.636 2°56.017 -999 18 13 101570 40
2012-05-29 03:30:57 51°13.636 2°56.017 -999 20 12.9 101570 40
2012-05-29 03:31:02 51°13.636 2°56.017 -999 14 12.9 101570 40
2012-05-29 03:31:07 51°13.636 2°56.017 -999 22 12.9 101570 40
2012-05-29 03:31:12 51°13.636 2°56.017 -999 15 12.9 101570 40
2012-05-29 03:31:17 51°13.636 2°56.017 -999 12 12.9 101570 40
2012-05-29 03:31:22 51°13.636 2°56.017 -999 14 12.9 101570 40
2012-05-29 03:31:27 51°13.636 2°56.017 -999 14 12.9 101570 38
2012-05-29 03:31:32 51°13.636 2°56.017 -999 11 12.9 101570 38
2012-05-29 03:31:37 51°13.636 2°56.018 -999 11 12.9 101570 40
2012-05-29 03:31:42 51°13.636 2°56.018 -999 32 12.9 101570 40
2012-05-29 03:31:46 51°13.637 2°56.018 -999 28 12.9 101570 40
2012-05-29 03:31:52 51°13.638 2°56.019 -999 11 12.9 101570 40
2012-05-29 03:31:57 51°13.638 2°56.019 -999 6 12.9 101570 40
2012-05-29 03:32:02 51°13.638 2°56.019 -999 11 12.9 101570 40
2012-05-29 03:32:06 51°13.638 2°56.019 -999 6 12.9 101570 40
2012-05-29 03:32:11 51°13.638 2°56.019 -999 11 12.9 101570 40
2012-05-29 03:32:16 51°13.638 2°56.02 -999 9 12.9 101570 40
2012-05-29 03:32:21 51°13.638 2°56.02 -999 14 12.9 101570 40
2012-05-29 03:32:27 51°13.638 2°56.02 -999 14 12.9 101570 40
2012-05-29 03:32:32 51°13.638 2°56.02 -999 10 12.9 101570 40
2012-05-29 03:32:37 51°13.638 2°56.02 -999 1 12.9 101570 40
2012-05-29 03:32:42 51°13.638 2°56.02 -999 7 12.9 101570 40
2012-05-29 03:32:46 51°13.638 2°56.02 -999 5 12.9 101570 40
2012-05-29 03:32:51 51°13.638 2°56.02 -999 10 12.9 101570 40
2012-05-29 03:32:57 51°13.638 2°56.02 -999 13 12.9 101570 40
2012-05-29 03:33:02 51°13.639 2°56.02 -999 2 12.9 101570 40
2012-05-29 03:33:06 51°13.639 2°56.02 -999 2 12.9 101560 40
2012-05-29 03:33:11 51°13.639 2°56.02 -999 14 12.9 101560 40
2012-05-29 03:33:17 51°13.639 2°56.02 -999 19 12.9 101560 40
2012-05-29 03:33:22 51°13.639 2°56.02 -999 12 12.9 101560 40
2012-05-29 03:33:27 51°13.639 2°56.02 -999 11 12.9 101570 40
2012-05-29 03:33:31 51°13.639 2°56.02 -999 12 12.9 101570 40
2012-05-29 03:33:37 51°13.639 2°56.02 -999 13 12.9 101560 40
2012-05-29 03:33:42 51°13.639 2°56.02 -999 20 12.9 101560 40
2012-05-29 03:33:47 51°13.639 2°56.021 -999 19 12.9 101570 40
2012-05-29 03:33:51 51°13.639 2°56.021 -999 4 12.9 101570 40
2012-05-29 03:33:56 51°13.639 2°56.02 -999 4 12.9 101570 40
2012-05-29 03:34:01 51°13.639 2°56.02 -999 10 12.9 101570 40
2012-05-29 03:34:06 51°13.639 2°56.02 -999 11 12.9 101570 38
2012-05-29 03:34:11 51°13.639 2°56.02 -999 14 12.9 101570 38
2012-05-29 03:34:16 51°13.639 2°56.02 -999 11 12.9 101570 40
2012-05-29 03:34:21 51°13.639 2°56.02 -999 19 12.9 101570 40
2012-05-29 03:34:26 51°13.639 2°56.02 -999 14 12.9 101570 40
2012-05-29 03:34:32 51°13.639 2°56.02 -999 19 12.9 101570 40
2012-05-29 03:34:37 51°13.639 2°56.02 -999 21 12.9 101560 40
2012-05-29 03:34:42 51°13.639 2°56.02 -999 6 12.9 101560 40
2012-05-29 03:34:46 51°13.639 2°56.02 -999 7 12.8 101570 40
2012-05-29 03:34:51 51°13.639 2°56.02 -999 16 12.8 101570 40
2012-05-29 03:34:56 51°13.639 2°56.02 -999 16 12.9 101570 40
2012-05-29 03:35:01 51°13.639 2°56.02 -999 19 12.9 101570 40
2012-05-29 03:35:06 51°13.639 2°56.02 -999 18 12.8 101570 40
2012-05-29 03:35:12 51°13.639 2°56.02 -999 21 12.8 101570 40
2012-05-29 03:35:16 51°13.639 2°56.02 -999 14 12.8 101570 40
2012-05-29 03:35:22 51°13.639 2°56.02 -999 23 12.8 101570 40
2012-05-29 03:35:27 51°13.639 2°56.02 -999 20 12.8 101570 40
2012-05-29 03:35:32 51°13.639 2°56.02 -999 22 12.8 101570 40
2012-05-29 03:35:36 51°13.639 2°56.02 -999 19 12.8 101570 40
2012-05-29 03:35:41 51°13.639 2°56.02 -999 17 12.8 101570 40
2012-05-29 03:35:46 51°13.639 2°56.02 -999 21 12.8 101570 40
2012-05-29 03:35:52 51°13.639 2°56.02 -999 26 12.8 101570 40
2012-05-29 03:35:56 51°13.639 2°56.02 -999 23 12.8 101570 40
2012-05-29 03:36:01 51°13.639 2°56.02 -999 26 12.8 101570 40
2012-05-29 03:36:07 51°13.64 2°56.02 -999 11 12.8 101570 40
2012-05-29 03:36:12 51°13.64 2°56.02 -999 19 12.8 101570 40
2012-05-29 03:36:16 51°13.64 2°56.02 -999 20 12.8 101570 40
2012-05-29 03:36:22 51°13.64 2°56.02 -999 12 12.8 101570 40
2012-05-29 03:36:27 51°13.64 2°56.02 -999 13 12.8 101570 40
2012-05-29 03:36:32 51°13.64 2°56.02 -999 7 12.8 101570 40
2012-05-29 03:36:37 51°13.64 2°56.02 -999 10 12.8 101570 40
2012-05-29 03:36:42 51°13.64 2°56.021 -999 360 12.8 101570 40
2012-05-29 03:36:47 51°13.641 2°56.021 -999 7 12.8 101570 38
2012-05-29 03:36:52 51°13.641 2°56.021 -999 16 12.8 101570 38
2012-05-29 03:36:57 51°13.641 2°56.021 -999 11 12.8 101570 40
2012-05-29 03:37:02 51°13.641 2°56.021 -999 23 12.8 101570 40
2012-05-29 03:37:07 51°13.641 2°56.021 -999 27 12.8 101560 40
2012-05-29 03:37:11 51°13.641 2°56.021 -999 16 12.8 101560 40
2012-05-29 03:37:16 51°13.641 2°56.021 -999 16 12.8 101570 40
2012-05-29 03:37:21 51°13.641 2°56.021 -999 15 12.8 101570 40
2012-05-29 03:37:26 51°13.641 2°56.02 -999 17 12.8 101570 40
2012-05-29 03:37:31 51°13.641 2°56.02 -999 18 12.8 101570 40
2012-05-29 03:37:37 51°13.641 2°56.02 -999 20 12.8 101570 40
2012-05-29 03:37:42 51°13.641 2°56.02 -999 9 12.8 101570 40
2012-05-29 03:37:47 51°13.641 2°56.02 -999 26 12.8 101560 40
2012-05-29 03:37:52 51°13.641 2°56.02 -999 23 12.8 101560 40
2012-05-29 03:37:57 51°13.641 2°56.02 -999 21 12.8 101570 40
2012-05-29 03:38:02 51°13.64 2°56.02 -999 19 12.8 101570 40
2012-05-29 03:38:07 51°13.64 2°56.02 -999 19 12.8 101570 40
2012-05-29 03:38:12 51°13.64 2°56.02 -999 30 12.8 101570 40
2012-05-29 03:38:17 51°13.64 2°56.02 -999 24 12.8 101570 40
2012-05-29 03:38:22 51°13.64 2°56.02 -999 14 12.8 101570 40
2012-05-29 03:38:27 51°13.64 2°56.02 -999 26 12.8 101570 40
2012-05-29 03:38:32 51°13.64 2°56.02 -999 16 12.8 101570 40
2012-05-29 03:38:37 51°13.64 2°56.02 -999 36 12.8 101570 40
2012-05-29 03:38:42 51°13.639 2°56.019 -999 21 12.8 101570 40
2012-05-29 03:38:47 51°13.639 2°56.019 -999 21 12.8 101570 40
2012-05-29 03:38:51 51°13.639 2°56.019 -999 14 12.8 101570 40
2012-05-29 03:38:56 51°13.639 2°56.019 -999 14 12.8 101570 40
2012-05-29 03:39:01 51°13.639 2°56.019 -999 14 12.8 101570 40
2012-05-29 03:39:07 51°13.639 2°56.019 -999 14 12.8 101570 40
2012-05-29 03:39:12 51°13.639 2°56.019 -999 13 12.8 101570 40
2012-05-29 03:39:16 51°13.639 2°56.019 -999 16 12.8 101570 40
2012-05-29 03:39:21 51°13.639 2°56.019 -999 21 12.8 101570 40
2012-05-29 03:39:26 51°13.639 2°56.019 -999 20 12.8 101570 38
2012-05-29 03:39:32 51°13.639 2°56.019 -999 1 12.8 101570 38
2012-05-29 03:39:36 51°13.639 2°56.019 -999 1 12.8 101570 40
2012-05-29 03:39:41 51°13.639 2°56.019 -999 2 12.8 101570 40
2012-05-29 03:39:46 51°13.639 2°56.02 -999 9 12.8 101560 40
2012-05-29 03:39:51 51°13.639 2°56.02 -999 3 12.8 101560 40
2012-05-29 03:39:56 51°13.639 2°56.02 -999 6 12.8 101570 40
2012-05-29 03:40:02 51°13.64 2°56.02 -999 12 12.8 101570 40
2012-05-29 03:40:07 51°13.64 2°56.02 -999 12 12.8 101570 40
2012-05-29 03:40:12 51°13.64 2°56.02 -999 12 12.8 101570 40
2012-05-29 03:40:17 51°13.64 2°56.02 -999 16 12.8 101570 40
2012-05-29 03:40:22 51°13.64 2°56.02 -999 30 12.8 101570 40
2012-05-29 03:40:26 51°13.64 2°56.019 -999 30 12.8 101560 40
2012-05-29 03:40:31 51°13.64 2°56.019 -999 17 12.8 101560 40
2012-05-29 03:40:36 51°13.64 2°56.019 -999 20 12.8 101570 40
2012-05-29 03:40:41 51°13.64 2°56.019 -999 4 12.8 101570 40
2012-05-29 03:40:46 51°13.64 2°56.019 -999 4 12.8 101570 40
2012-05-29 03:40:51 51°13.64 2°56.019 -999 4 12.8 101570 40
2012-05-29 03:40:56 51°13.639 2°56.019 -999 4 12.8 101570 40
2012-05-29 03:41:02 51°13.639 2°56.019 -999 6 12.8 101570 40
2012-05-29 03:41:07 51°13.639 2°56.019 -999 6 12.9 101570 40
2012-05-29 03:41:12 51°13.639 2°56.02 -999 19 12.9 101570 40
2012-05-29 03:41:17 51°13.639 2°56.02 -999 15 12.8 101570 40
2012-05-29 03:41:22 51°13.639 2°56.02 -999 23 12.8 101570 40
2012-05-29 03:41:26 51°13.639 2°56.02 -999 17 12.9 101570 40
2012-05-29 03:41:31 51°13.639 2°56.02 -999 16 12.9 101570 40
2012-05-29 03:41:37 51°13.639 2°56.02 -999 16 12.8 101570 40
2012-05-29 03:41:42 51°13.639 2°56.02 -999 25 12.8 101570 40
2012-05-29 03:41:47 51°13.639 2°56.02 -999 22 12.8 101570 40
2012-05-29 03:41:52 51°13.639 2°56.02 -999 14 12.8 101570 40
2012-05-29 03:41:57 51°13.639 2°56.02 -999 14 12.8 101570 40
2012-05-29 03:42:02 51°13.639 2°56.02 -999 21 12.8 101570 40
2012-05-29 03:42:07 51°13.639 2°56.02 -999 18 12.9 101570 38
2012-05-29 03:42:12 51°13.639 2°56.02 -999 17 12.9 101570 38
2012-05-29 03:42:17 51°13.639 2°56.02 -999 15 12.8 101570 40
2012-05-29 03:42:21 51°13.639 2°56.02 -999 14 12.8 101570 40
2012-05-29 03:42:26 51°13.639 2°56.02 -999 13 12.9 101570 40
2012-05-29 03:42:31 51°13.639 2°56.02 -999 15 12.9 101570 40
2012-05-29 03:42:36 51°13.639 2°56.02 -999 15 12.8 101570 40
2012-05-29 03:42:41 51°13.639 2°56.02 -999 9 12.8 101570 40
2012-05-29 03:42:46 51°13.639 2°56.02 -999 9 12.9 101570 40
2012-05-29 03:42:51 51°13.639 2°56.02 -999 17 12.9 101570 40
2012-05-29 03:42:56 51°13.638 2°56.019 -999 14 12.9 101560 40
2012-05-29 03:43:02 51°13.638 2°56.019 -999 358 12.9 101560 40
2012-05-29 03:43:07 51°13.638 2°56.019 -999 10 12.9 101560 40
2012-05-29 03:43:12 51°13.638 2°56.019 -999 8 12.9 101560 40
2012-05-29 03:43:17 51°13.638 2°56.019 -999 9 12.9 101570 40
2012-05-29 03:43:22 51°13.638 2°56.019 -999 35 12.9 101570 40
2012-05-29 03:43:27 51°13.638 2°56.019 -999 37 12.9 101570 40
2012-05-29 03:43:31 51°13.638 2°56.019 -999 27 12.9 101570 40
2012-05-29 03:43:37 51°13.637 2°56.019 -999 28 12.9 101560 40
2012-05-29 03:43:42 51°13.637 2°56.018 -999 17 12.9 101560 40
2012-05-29 03:43:47 51°13.637 2°56.019 -999 19 12.8 101570 39
2012-05-29 03:43:52 51°13.637 2°56.018 -999 23 12.8 101570 39
2012-05-29 03:43:56 51°13.637 2°56.018 -999 12 12.9 101570 40
2012-05-29 03:44:02 51°13.637 2°56.018 -999 30 12.9 101570 40
2012-05-29 03:44:06 51°13.637 2°56.018 -999 32 12.8 101570 40
2012-05-29 03:44:11 51°13.637 2°56.018 -999 22 12.8 101570 40
2012-05-29 03:44:16 51°13.637 2°56.018 -999 27 12.9 101570 40
2012-05-29 03:44:21 51°13.637 2°56.018 -999 24 12.9 101570 40
2012-05-29 03:44:26 51°13.637 2°56.018 -999 24 12.9 101570 40
2012-05-29 03:44:31 51°13.637 2°56.018 -999 35 12.9 101570 40
2012-05-29 03:44:36 51°13.637 2°56.018 -999 33 12.8 101570 40
2012-05-29 03:44:41 51°13.637 2°56.018 -999 30 12.8 101570 40
2012-05-29 03:44:46 51°13.637 2°56.018 -999 28 12.8 101570 38
2012-05-29 03:44:52 51°13.637 2°56.019 -999 20 12.8 101570 38
2012-05-29 03:44:57 51°13.637 2°56.019 -999 17 12.9 101570 40
2012-05-29 03:45:02 51°13.637 2°56.018 -999 24 12.9 101570 40
2012-05-29 03:45:07 51°13.636 2°56.018 -999 20 12.8 101570 40
2012-05-29 03:45:12 51°13.636 2°56.018 -999 21 12.8 101570 40